Flag for Germany Weather past 2 weeks in Coesfeld, North Rhine-Westphalia, Germany

Now
41 °F

Broken clouds.


Feels Like: 35 °F
Forecast: 37 / 42 °F
Wind: 10 mph from West

Location: Rheine-Bentlage

Current Time: Jan 27, 2015 at 12:03:40 PM

Latest Report: Jan 27, 2015 at 11:20 AM


Visibility: N/A

Pressure: 30.15 "Hg

Humidity: 87%

Dew point: 37 °F

Location of CoesfeldLocation

Historic Weather in Coesfeld — Graph

°F

Coesfeld temperature yesterday

Maximum temperature yesterday: 43 °F (at 5:20 PM)
Minimum temperature yesterday: 37 °F (at 12:20 AM)
Average temperature yesterday: 39 °F

Past Weeks' High & Low Weather Summary

 TemperatureHumidityPressure
High50 °F (Jan 13, 7:20 AM)100% (Jan 17, 6:20 AM)30.36 "Hg (Jan 17, 6:20 AM)
Low27 °F (Jan 21, 2:20 AM)60% (Jan 21, 3:20 PM)29.36 "Hg (Jan 15, 4:20 PM)
Average37 °F86%29.92 "Hg
* Reported Jan 12 10:20 AM — Jan 27 10:20 AM, Coesfeld, Weather by CustomWeather, © 2014

Note: Actual official high and low records may vary slightly from our data, if they occured in-between our weather recording intervals... More about our weather records

Advertising

Coesfeld weather history for previous 24 hours

 ConditionsComfort  
Time TempWeatherWind HumidityBarometerVisibility
10:20 AM
Jan 27
39 °FBroken clouds.8 mph87%30.12 "HgN/A
9:20 AM37 °FScattered clouds.9 mph87%30.12 "HgN/A
8:20 AM36 °FScattered clouds.7 mph93%30.12 "HgN/A
7:20 AM36 °FPassing clouds.8 mph93%30.09 "HgN/A
6:20 AM37 °FPassing clouds.10 mph87%30.09 "HgN/A
5:20 AM37 °FPassing clouds.12 mph87%30.09 "HgN/A
4:20 AM37 °FChilly.12 mph87%30.09 "HgN/A
3:20 AM37 °FChilly.9 mph87%30.09 "HgN/A
2:20 AM37 °FChilly.10 mph87%30.09 "HgN/A
1:20 AM37 °FChilly.10 mph87%30.07 "HgN/A
12:20 AM37 °FChilly.12 mph93%30.07 "HgN/A
11:20 PM
Jan 26
39 °FChilly.12 mph87%30.07 "HgN/A
10:20 PM39 °FChilly.13 mph87%30.07 "HgN/A
9:20 PM39 °FChilly.12 mph93%30.04 "HgN/A
8:20 PM41 °FQuite cool.12 mph87%30.04 "HgN/A
7:20 PM41 °FQuite cool.10 mph93%30.01 "HgN/A
6:20 PM43 °FQuite cool.13 mph93%30.01 "HgN/A
5:20 PM43 °FQuite cool.10 mph100%29.98 "HgN/A
4:20 PM41 °FQuite cool.8 mph100%29.98 "HgN/A
3:20 PM41 °FDrizzle. Fog.7 mph93%29.98 "Hg1 mi
2:20 PM39 °FDrizzle. Fog.8 mph100%30.01 "Hg2 mi
1:20 PM39 °FDrizzle. Fog.5 mph100%30.01 "Hg1 mi
12:20 PM39 °FDrizzle. Fog.6 mph93%30.04 "Hg1 mi
Weather by CustomWeather, © 2014

See weather overviewHow to use our weather pages